STARLINK-2547, 48286

Orbit data source: Space-Track

STARLINK-2547, 48286 is a payload satellite owned by SpaceX/Seattle (US) in LEO that was launched on Thu, 29 Apr 2021 UTC via an FALCON 9 launch vehicle from the Air Force Eastern Test Range (AFETR). Payload-class satellites include a variety of spacecraft equipped with specific instruments for various scientific and technological missions. These include communications satellites like Starlink; space stations such as the ISS; scientific satellites like the Hubble; Earth observation satellites from companies like Planet Labs, Umbra, and HawkEye 360; GPS; miniature CubeSats for education and research; and military/defense satellites.

Loading next visibility...
Identifier
48286, 2021-036L
Orbit
LEO
Country
Flag of USUS
Related business
Manufacturer
SpaceX/Seattle
Mission
Operational Commercial Communications
Bus & Motor
STARLINK, Unknown motor
Mass
260 kg wet, ~248 kg dry
Launch date (UTC)
2021-04-29 (4 years ago)
Launch vehicle
FALCON 9
Launch site
Air Force Eastern Test Range (AFETR)
Object type
Payload
Rocket body
Debris
Shape & HBR
Box + 1 Pan, 10.1 m
Radar Cross Section
13.562 m², Large (>1 m²)

Expand to show TLE details & history
Last TLE update: 6 hours ago

TLE from 6 hours ago
0 STARLINK-2547
1 48286U 21036L   25292.89148929 -.00005939  00000-0 -38008-3 0  9990
2 48286  53.0556 353.9570 0001470  94.5642 265.5515 15.06408579247083
Epoch: 2025-10-19T21:23Z
TLE epoch observation values (Epoch: 2025-10-19T21:23:44.674Z)
Latitude
-0.00003°
Longitude
4.41919°
Altitude
548.144 km
Speed
7.589 km/s
True Right ascension
23h 35m 49s
True Declination
0° 00' 00"
Sunlit
Object was in full shadow at epoch
Visualization orbit readout
Latitude
Unknown
Longitude
Unknown
Altitude
Unknown
Speed
Unknown
Apparent Right ascension
Unknown
Apparent Declination
Unknown
Sunlit
N/A
Visualization observer readout
Local Sidereal Time
22:02:26
Azimuth
Unknown
Elevation
Unknown
Doppler factor
Unknown
Orbital elements
Apogee altitude
548.474 km
Perigee altitude
546.438 km
Semi-major axis
6,925.593 km
Eccentricity
0.00015
Inclination
53.0556°
RAAN
353.957°
Arg. of periapsis
94.5642°
True anomaly
265.53471°
Mean anomaly
265.5515°
Eccentric anomaly
265.5431°
Mean motion
3.7658 °/min
Orbital period
95.6 mins
BSTAR
-0.00038008
Loading maneuver chart data...
Computing Atmospheric mass density...
Loading historical data...
Loading historical data...
Loading historical data...
Loading historical data...
Loading historical data...
Loading historical data...
Loading historical data...

Documentation

Showing up to 5 results
|